• In Russia
  • List of Countries
  • For 7 days
  • Water Temperature
  • Weather Map
  • Weather Widgets
  • user-avatar
    Login

    Hourly Weather Lezhe

    Today, 28 February, Friday

    Time Temperature Precipitation Wind Pressure Humidity
    00:00 +3°C° 0 mm 2 mps 735 mmHg 81%
    01:00 +2°C° 0 mm 3 mps 735 mmHg 81%
    02:00 +3°C° 0 mm 3 mps 734 mmHg 81%
    03:00 +3°C° 0 mm 3 mps 734 mmHg 81%
    04:00 +3°C° 0 mm 3 mps 733 mmHg 81%
    05:00 +3°C° 1.1 mm 4 mps 733 mmHg 85%
    06:00 +2°C° 1.1 mm 5 mps 732 mmHg 90%
    07:00 +2°C° 1.1 mm 5 mps 732 mmHg 95%
    08:00 +2°C° 2.4 mm 6 mps 731 mmHg 94%
    09:00 +2°C° 2.4 mm 6 mps 731 mmHg 94%
    10:00 +3°C° 2.4 mm 6 mps 731 mmHg 94%
    11:00 +3°C° 2.9 mm 5 mps 731 mmHg 93%
    12:00 +5°C° 2.9 mm 4 mps 732 mmHg 93%
    13:00 +5°C° 2.9 mm 3 mps 732 mmHg 93%
    14:00 +5°C° 0.2 mm 3 mps 733 mmHg 89%
    15:00 +7°C° 0.2 mm 3 mps 733 mmHg 86%
    16:00 +7°C° 0.2 mm 3 mps 734 mmHg 83%
    17:00 +5°C° 0.1 mm 3 mps 735 mmHg 84%
    18:00 +3°C° 0.1 mm 3 mps 736 mmHg 84%
    19:00 +2°C° 0.1 mm 3 mps 736 mmHg 85%
    20:00 +1°C° 0 mm 3 mps 737 mmHg 83%
    21:00 +1°C° 0 mm 3 mps 738 mmHg 82%
    22:00 +1°C° 0 mm 3 mps 738 mmHg 80%
    23:00 0°C° 0 mm 3 mps 739 mmHg 79%

    Tomorrow, 29 February, Saturday

    Time Temperature Precipitation Wind Pressure Humidity
    00:00 0°C° 0 mm 3 mps 739 mmHg 78%
    01:00 0°C° 0 mm 3 mps 739 mmHg 76%
    02:00 0°C° 0 mm 3 mps 740 mmHg 76%
    03:00 -1°C° 0 mm 3 mps 740 mmHg 75%
    04:00 -1°C° 0 mm 3 mps 740 mmHg 74%
    05:00 -1°C° 0 mm 3 mps 740 mmHg 73%
    06:00 -1°C° 0 mm 3 mps 740 mmHg 73%
    07:00 -1°C° 0 mm 3 mps 741 mmHg 72%
    08:00 +2°C° 0 mm 2 mps 740 mmHg 68%
    09:00 +4°C° 0 mm 2 mps 740 mmHg 63%
    10:00 +6°C° 0 mm 2 mps 740 mmHg 59%
    11:00 +8°C° 0 mm 1 mps 740 mmHg 58%
    12:00 +9°C° 0 mm 1 mps 740 mmHg 56%
    13:00 +9°C° 0 mm 1 mps 740 mmHg 55%
    14:00 +9°C° 0 mm 1 mps 739 mmHg 58%
    15:00 +9°C° 0 mm 1 mps 739 mmHg 61%
    16:00 +9°C° 0 mm 1 mps 738 mmHg 65%
    17:00 +8°C° 0 mm 1 mps 738 mmHg 65%
    18:00 +7°C° 0 mm 1 mps 738 mmHg 65%
    19:00 +6°C° 0 mm 1 mps 738 mmHg 66%
    20:00 +6°C° 0 mm 1 mps 739 mmHg 65%
    21:00 +5°C° 0 mm 1 mps 739 mmHg 64%
    22:00 +5°C° 0 mm 1 mps 739 mmHg 63%
    23:00 +4°C° 0 mm 2 mps 739 mmHg 64%

    Day after tomorrow, 1 March, Sunday

    Time Temperature Precipitation Wind Pressure Humidity
    00:00 +4°C° 0 mm 2 mps 739 mmHg 64%
    01:00 +4°C° 0 mm 2 mps 738 mmHg 64%
    02:00 +4°C° 0 mm 2 mps 738 mmHg 64%
    03:00 +4°C° 0 mm 2 mps 738 mmHg 64%
    04:00 +4°C° 0 mm 2 mps 738 mmHg 64%
    05:00 +4°C° 0 mm 2 mps 738 mmHg 65%
    06:00 +5°C° 0 mm 2 mps 738 mmHg 65%
    07:00 +5°C° 0 mm 2 mps 738 mmHg 66%
    08:00 +6°C° 0 mm 2 mps 738 mmHg 66%
    09:00 +8°C° 0 mm 2 mps 738 mmHg 66%
    10:00 +10°C° 0 mm 1 mps 738 mmHg 66%
    11:00 +10°C° 0 mm 1 mps 737 mmHg 68%
    12:00 +10°C° 0 mm 1 mps 737 mmHg 70%
    13:00 +11°C° 0 mm 1 mps 737 mmHg 73%
    14:00 +10°C° 0 mm 1 mps 736 mmHg 74%
    15:00 +10°C° 0 mm 1 mps 736 mmHg 76%
    16:00 +10°C° 0 mm 1 mps 735 mmHg 77%
    17:00 +10°C° 0 mm 1 mps 735 mmHg 79%
    18:00 +10°C° 0 mm 1 mps 735 mmHg 80%
    19:00 +9°C° 0 mm 2 mps 736 mmHg 81%
    20:00 +9°C° 0 mm 2 mps 735 mmHg 81%
    21:00 +9°C° 0 mm 2 mps 735 mmHg 82%
    22:00 +9°C° 0 mm 2 mps 735 mmHg 82%
    23:00 +9°C° 0.2 mm 3 mps 735 mmHg 82%

    2 March, Monday

    Time Temperature Precipitation Wind Pressure Humidity
    00:00 +8°C° 0.2 mm 4 mps 735 mmHg 82%
    01:00 +8°C° 0.2 mm 5 mps 734 mmHg 83%
    02:00 +8°C° 1.6 mm 5 mps 734 mmHg 86%
    03:00 +8°C° 1.6 mm 6 mps 733 mmHg 89%
    04:00 +8°C° 1.6 mm 6 mps 732 mmHg 92%
    05:00 +9°C° 1.3 mm 6 mps 732 mmHg 92%
    06:00 +9°C° 1.3 mm 6 mps 732 mmHg 93%
    07:00 +9°C° 1.3 mm 7 mps 732 mmHg 93%
    08:00 +10°C° 1.4 mm 7 mps 733 mmHg 90%
    09:00 +11°C° 1.4 mm 7 mps 733 mmHg 87%
    10:00 +11°C° 1.4 mm 7 mps 733 mmHg 85%
    11:00 +13°C° 0.7 mm 6 mps 733 mmHg 82%
    12:00 +13°C° 0.7 mm 6 mps 733 mmHg 80%
    13:00 +13°C° 0.7 mm 5 mps 733 mmHg 78%
    14:00 +13°C° 0.4 mm 5 mps 733 mmHg 77%
    15:00 +13°C° 0.4 mm 4 mps 733 mmHg 77%
    16:00 +13°C° 0.4 mm 4 mps 732 mmHg 76%
    17:00 +12°C° 0.2 mm 4 mps 733 mmHg 80%
    18:00 +11°C° 0.2 mm 3 mps 733 mmHg 84%
    19:00 +10°C° 0.2 mm 3 mps 733 mmHg 89%
    20:00 +10°C° 0.2 mm 3 mps 733 mmHg 88%
    21:00 +10°C° 0.2 mm 3 mps 733 mmHg 88%
    22:00 +10°C° 0.2 mm 3 mps 732 mmHg 88%
    23:00 +9°C° 0.3 mm 2 mps 732 mmHg 87%

    3 March, Tuesday

    Time Temperature Precipitation Wind Pressure Humidity
    00:00 +9°C° 0.3 mm 2 mps 731 mmHg 86%
    01:00 +9°C° 0.3 mm 2 mps 731 mmHg 84%
    02:00 +9°C° 0.5 mm 2 mps 730 mmHg 84%
    03:00 +9°C° 0.5 mm 3 mps 729 mmHg 84%
    04:00 +9°C° 0.5 mm 3 mps 729 mmHg 84%
    05:00 +9°C° 2.4 mm 3 mps 728 mmHg 87%
    06:00 +8°C° 2.4 mm 4 mps 728 mmHg 90%
    07:00 +9°C° 2.4 mm 5 mps 727 mmHg 93%
    08:00 +9°C° 3 mm 5 mps 727 mmHg 93%
    09:00 +9°C° 3 mm 5 mps 727 mmHg 93%
    10:00 +9°C° 3 mm 5 mps 727 mmHg 93%
    11:00 +9°C° 4.1 mm 5 mps 727 mmHg 94%
    12:00 +10°C° 4.1 mm 4 mps 726 mmHg 95%
    13:00 +10°C° 4.1 mm 4 mps 726 mmHg 95%
    14:00 +10°C° 6.7 mm 3 mps 726 mmHg 96%
    15:00 +9°C° 6.7 mm 3 mps 726 mmHg 96%
    16:00 +9°C° 6.7 mm 2 mps 726 mmHg 97%
    17:00 +9°C° 2 mm 2 mps 726 mmHg 96%
    18:00 +8°C° 2 mm 2 mps 727 mmHg 96%
    19:00 +8°C° 2 mm 2 mps 727 mmHg 95%
    20:00 +9°C° 0.1 mm 1 mps 728 mmHg 94%
    21:00 +9°C° 0.1 mm 1 mps 728 mmHg 93%
    22:00 +9°C° 0.1 mm 1 mps 728 mmHg 92%
    23:00 +9°C° 0.7 mm 1 mps 729 mmHg 93%

    4 March, Wednesday

    Time Temperature Precipitation Wind Pressure Humidity
    00:00 +9°C° 0.7 mm 1 mps 729 mmHg 95%
    01:00 +9°C° 0.7 mm 1 mps 729 mmHg 96%
    02:00 +9°C° 1.1 mm 1 mps 729 mmHg 97%
    03:00 +9°C° 1.1 mm 1 mps 729 mmHg 97%
    04:00 +9°C° 1.1 mm 1 mps 729 mmHg 97%
    05:00 +9°C° 0.4 mm 1 mps 729 mmHg 96%
    06:00 +9°C° 0.4 mm 1 mps 729 mmHg 95%
    07:00 +9°C° 0.4 mm 1 mps 729 mmHg 93%
    08:00 +9°C° 0 mm 1 mps 729 mmHg 88%
    09:00 +9°C° 0 mm 2 mps 729 mmHg 83%
    10:00 +10°C° 0 mm 2 mps 729 mmHg 78%
    11:00 +10°C° 0 mm 2 mps 729 mmHg 75%
    12:00 +12°C° 0 mm 2 mps 729 mmHg 71%
    13:00 +13°C° 0 mm 2 mps 729 mmHg 68%
    14:00 +13°C° 0.1 mm 2 mps 728 mmHg 70%
    15:00 +12°C° 0.1 mm 2 mps 728 mmHg 73%
    16:00 +11°C° 0.1 mm 3 mps 728 mmHg 75%
    17:00 +10°C° 0.2 mm 2 mps 728 mmHg 80%
    18:00 +9°C° 0.2 mm 2 mps 729 mmHg 85%
    19:00 +8°C° 0.2 mm 2 mps 729 mmHg 90%
    20:00 +8°C° 0.2 mm 2 mps 729 mmHg 90%
    21:00 +8°C° 0.2 mm 2 mps 729 mmHg 90%
    22:00 +8°C° 0.2 mm 2 mps 729 mmHg 91%
    23:00 +7°C° 0.1 mm 2 mps 729 mmHg 91%
    Show more